Location: Cumbre Roja
(10.2766°N, 67.0675°W)
Time: 14:46:58
(UTC+00:00)

SAR-Lupe-4 - Visible Passes

Search period start: 14 February 2026 00:00
Search period end: 24 February 2026 00:00
Orbit: 480 x 483 km, 98.1° (Epoch: 10 January)

Date Brightness Start Highest point End Pass type
(mag) Time Alt. Az. Time Alt. Az. Time Alt. Az.
14 Feb 3.4 23:02:44 10° SSE 23:06:16 77° ENE 23:09:49 10° N visible
16 Feb 6.4 23:45:10 10° SSW 23:47:50 20° W 23:50:31 10° NW visible
17 Feb 4.3 23:18:33 10° S 23:22:02 56° WSW 23:25:31 10° NNW visible
18 Feb 3.8 22:52:51 10° SSE 22:56:15 46° ENE 22:59:40 10° N visible
20 Feb 7.2 00:02:06 10° WSW 00:03:31 12° W 00:04:57 10° WNW visible
20 Feb 5.6 23:34:29 10° SSW 23:37:40 31° W 23:40:51 10° NW visible
21 Feb 3.5 23:08:17 10° SSE 23:11:49 86° E 23:15:22 10° N visible
23 Feb 6.6 23:50:37 10° SSW 23:53:10 19° W 23:55:42 10° NW visible
